EWG5AB LDSP-EDDH

Flight info

Callsign EWG5AB
Flight time 1h 48m
Altitude 34000
Route ZDA DCT SIMBA DCT RUDNO M736 AKOSI DCT ABGUS DCT DIRBO T902 RARUP
Aircraft A321/M-SDE3FGHIRWY/LB1

Departure

Time 2026-04-25 09:20
Airport Split Saint Jerome Airport (LDSP)

Arrival

Time 2026-04-25 11:09
Airport Hamburg Helmut Schmidt Airport (EDDH)
Time Latitude Longitude Altitude Speed Heading
2026-04-25 08:35 43.53693 16.29803 60 ft 0 kts 116°
2026-04-25 09:16 43.53693 16.29809 60 ft 1 kts 78°
2026-04-25 09:16 43.53702 16.29809 60 ft 2 kts 315°
2026-04-25 09:16 43.53711 16.29771 61 ft 6 kts 281°
2026-04-25 09:16 43.53705 16.29710 62 ft 7 kts 245°
2026-04-25 09:17 43.53688 16.29549 66 ft 6 kts 289°
2026-04-25 09:17 43.53689 16.29477 69 ft 8 kts 261°
2026-04-25 09:17 43.53662 16.29381 72 ft 13 kts 234°
2026-04-25 09:18 43.53595 16.29260 73 ft 19 kts 233°
2026-04-25 09:18 43.53507 16.29102 75 ft 20 kts 232°
2026-04-25 09:18 43.53419 16.28947 74 ft 20 kts 233°
2026-04-25 09:18 43.53331 16.28787 70 ft 21 kts 233°
2026-04-25 09:19 43.53243 16.28636 68 ft 15 kts 208°
2026-04-25 09:19 43.53204 16.28573 66 ft 4 kts 346°
2026-04-25 09:19 43.53218 16.28585 66 ft 2 kts 44°
2026-04-25 09:19 43.53223 16.28593 66 ft 0 kts 51°
2026-04-25 09:20 43.53242 16.28626 68 ft 24 kts 51°
2026-04-25 09:20 43.53523 16.29132 75 ft 106 kts 52°
2026-04-25 09:20 43.54121 16.30206 71 ft 172 kts 51°
2026-04-25 09:20 43.54806 16.31627 722 ft 177 kts 71°
2026-04-25 09:21 43.54759 16.33293 1359 ft 189 kts 113°
2026-04-25 09:21 43.54174 16.34897 2195 ft 186 kts 116°
2026-04-25 09:21 43.53350 16.36222 2687 ft 188 kts 147°
2026-04-25 09:21 43.52177 16.37087 3075 ft 194 kts 151°
2026-04-25 09:22 43.50973 16.37950 3514 ft 197 kts 150°
2026-04-25 09:22 43.49768 16.38869 3987 ft 198 kts 148°
2026-04-25 09:22 43.48571 16.39809 4457 ft 199 kts 149°
2026-04-25 09:22 43.47360 16.40720 4910 ft 201 kts 153°
2026-04-25 09:23 43.45955 16.40995 5197 ft 211 kts 194°
2026-04-25 09:23 43.44749 16.39838 5455 ft 219 kts 237°
2026-04-25 09:23 43.44328 16.37840 5681 ft 227 kts 276°
2026-04-25 09:23 43.44928 16.35806 5850 ft 239 kts 310°
2026-04-25 09:24 43.46076 16.34087 6178 ft 252 kts 316°
2026-04-25 09:24 43.47353 16.32309 6519 ft 266 kts 315°
2026-04-25 09:24 43.48671 16.30426 7020 ft 274 kts 315°
2026-04-25 09:24 43.49968 16.28551 7666 ft 276 kts 315°
2026-04-25 09:25 43.51266 16.26624 8324 ft 277 kts 313°
2026-04-25 09:25 43.52569 16.24628 8972 ft 278 kts 313°
2026-04-25 09:25 43.53852 16.22658 9575 ft 279 kts 314°
2026-04-25 09:25 43.55161 16.20670 10183 ft 281 kts 314°
2026-04-25 09:26 43.56503 16.18639 10469 ft 295 kts 313°
2026-04-25 09:26 43.57909 16.16481 10695 ft 310 kts 313°
2026-04-25 09:26 43.59369 16.14202 10935 ft 324 kts 313°
2026-04-25 09:26 43.60889 16.11827 11260 ft 335 kts 313°
2026-04-25 09:27 43.62449 16.09429 11722 ft 340 kts 313°
2026-04-25 09:27 43.64036 16.07016 12259 ft 342 kts 314°
2026-04-25 09:27 43.65660 16.04561 12802 ft 345 kts 313°
2026-04-25 09:27 43.67299 16.02071 13319 ft 348 kts 313°
2026-04-25 09:28 43.68943 15.99562 13853 ft 350 kts 313°
2026-04-25 09:28 43.70579 15.97055 14375 ft 352 kts 313°
2026-04-25 09:28 43.72229 15.94520 14884 ft 355 kts 313°
2026-04-25 09:28 43.73909 15.91932 15356 ft 359 kts 313°
2026-04-25 09:29 43.75580 15.89355 15836 ft 361 kts 313°
2026-04-25 09:29 43.77250 15.86776 16311 ft 364 kts 313°
2026-04-25 09:29 43.78949 15.84149 16743 ft 367 kts 313°
2026-04-25 09:29 43.80656 15.81506 17243 ft 369 kts 313°
2026-04-25 09:30 43.82380 15.78834 17670 ft 372 kts 313°
2026-04-25 09:30 43.84098 15.76169 18111 ft 374 kts 313°
2026-04-25 09:30 43.85865 15.73428 18572 ft 376 kts 313°
2026-04-25 09:30 43.87613 15.70714 18995 ft 379 kts 313°
2026-04-25 09:31 43.89379 15.67968 19425 ft 381 kts 313°
2026-04-25 09:31 43.91138 15.65231 19829 ft 383 kts 312°
2026-04-25 09:31 43.92909 15.62472 20243 ft 385 kts 312°
2026-04-25 09:31 43.94711 15.59662 20654 ft 387 kts 312°
2026-04-25 09:32 43.96486 15.56891 21029 ft 389 kts 312°
2026-04-25 09:32 43.98313 15.54035 21432 ft 391 kts 312°
2026-04-25 09:32 44.00125 15.51199 21798 ft 393 kts 312°
2026-04-25 09:32 44.01957 15.48330 22177 ft 395 kts 312°
2026-04-25 09:33 44.03800 15.45439 22547 ft 397 kts 312°
2026-04-25 09:33 44.05637 15.42557 22892 ft 399 kts 312°
2026-04-25 09:33 44.07498 15.39686 23230 ft 401 kts 315°
2026-04-25 09:33 44.09613 15.37176 23567 ft 403 kts 324°
2026-04-25 09:34 44.12036 15.35193 23899 ft 405 kts 334°
2026-04-25 09:34 44.14691 15.33669 24227 ft 407 kts 338°
2026-04-25 09:34 44.17361 15.32261 24540 ft 409 kts 339°
2026-04-25 09:34 44.20064 15.30854 24830 ft 412 kts 339°
2026-04-25 09:35 44.22735 15.29460 25110 ft 414 kts 339°
2026-04-25 09:35 44.25447 15.28041 25398 ft 416 kts 339°
2026-04-25 09:35 44.28192 15.26599 25693 ft 418 kts 339°
2026-04-25 09:35 44.30904 15.25172 25972 ft 420 kts 339°
2026-04-25 09:36 44.33658 15.23718 26258 ft 421 kts 338°
2026-04-25 09:36 44.36402 15.22268 26529 ft 423 kts 338°
2026-04-25 09:36 44.39174 15.20800 26784 ft 425 kts 338°
2026-04-25 09:36 44.41945 15.19332 27032 ft 427 kts 338°
2026-04-25 09:37 44.44730 15.17854 27271 ft 429 kts 339°
2026-04-25 09:37 44.47523 15.16369 27504 ft 430 kts 338°
2026-04-25 09:37 44.50315 15.14885 27760 ft 432 kts 338°
2026-04-25 09:37 44.53142 15.13380 28013 ft 433 kts 338°
2026-04-25 09:38 44.55947 15.11885 28250 ft 434 kts 338°
2026-04-25 09:38 44.58789 15.10368 28491 ft 435 kts 338°
2026-04-25 09:38 44.61613 15.08860 28719 ft 437 kts 338°
2026-04-25 09:38 44.64488 15.07323 28935 ft 438 kts 338°
2026-04-25 09:39 44.67324 15.05805 29155 ft 439 kts 338°
2026-04-25 09:39 44.70196 15.04267 29409 ft 440 kts 338°
2026-04-25 09:39 44.73059 15.02732 29713 ft 439 kts 338°
2026-04-25 09:40 44.78771 14.99664 30282 ft 437 kts 338°
2026-04-25 09:40 44.81640 14.98120 30523 ft 437 kts 338°
2026-04-25 09:40 44.84482 14.96589 30766 ft 437 kts 338°
2026-04-25 09:40 44.87317 14.95060 31010 ft 437 kts 338°
2026-04-25 09:41 44.90157 14.93528 31252 ft 436 kts 338°
2026-04-25 09:41 44.92997 14.91993 31483 ft 436 kts 338°
2026-04-25 09:41 44.95838 14.90456 31715 ft 435 kts 338°
2026-04-25 09:41 44.98661 14.88927 31953 ft 435 kts 338°
2026-04-25 09:42 45.01483 14.87395 32189 ft 434 kts 338°
2026-04-25 09:42 45.04320 14.85857 32406 ft 433 kts 338°
2026-04-25 09:42 45.07142 14.84324 32580 ft 434 kts 338°
2026-04-25 09:42 45.09964 14.82790 32732 ft 435 kts 338°
2026-04-25 09:43 45.12843 14.81228 32891 ft 436 kts 338°
2026-04-25 09:43 45.15704 14.79678 33057 ft 436 kts 337°
2026-04-25 09:43 45.18533 14.78140 33215 ft 437 kts 337°
2026-04-25 09:43 45.21410 14.76573 33362 ft 437 kts 337°
2026-04-25 09:44 45.24240 14.75028 33502 ft 438 kts 337°
2026-04-25 09:44 45.27097 14.73466 33644 ft 439 kts 337°
2026-04-25 09:44 45.29970 14.71893 33792 ft 439 kts 337°
2026-04-25 09:44 45.32811 14.70334 33930 ft 439 kts 337°
2026-04-25 09:45 45.35663 14.68768 34064 ft 440 kts 337°
2026-04-25 09:45 45.38527 14.67193 34075 ft 441 kts 337°
2026-04-25 09:45 45.44224 14.64055 34087 ft 440 kts 337°
2026-04-25 09:46 45.49959 14.60891 34091 ft 440 kts 337°
2026-04-25 09:46 45.55660 14.57740 34084 ft 439 kts 337°
2026-04-25 09:47 45.61327 14.54599 34086 ft 439 kts 336°
2026-04-25 09:47 45.67030 14.51430 34078 ft 439 kts 336°
2026-04-25 09:48 45.72738 14.48252 34078 ft 439 kts 336°
2026-04-25 09:48 45.78409 14.45088 34075 ft 439 kts 336°
2026-04-25 09:49 45.84115 14.41897 34068 ft 439 kts 336°
2026-04-25 09:49 45.89782 14.38722 34062 ft 438 kts 336°
2026-04-25 09:50 45.95462 14.35533 34063 ft 438 kts 336°
2026-04-25 09:50 46.01129 14.32324 34065 ft 437 kts 335°
2026-04-25 09:51 46.06770 14.29118 34052 ft 437 kts 335°
2026-04-25 09:51 46.12466 14.25891 34055 ft 438 kts 335°
2026-04-25 09:52 46.18106 14.22710 34064 ft 438 kts 335°
2026-04-25 09:52 46.23808 14.19480 34080 ft 438 kts 335°
2026-04-25 09:53 46.29474 14.16260 34089 ft 438 kts 335°
2026-04-25 09:53 46.35134 14.13031 34091 ft 438 kts 335°
2026-04-25 09:54 46.40808 14.09788 34101 ft 437 kts 335°
2026-04-25 09:54 46.46437 14.06565 34104 ft 437 kts 335°
2026-04-25 09:55 46.52079 14.03326 34109 ft 436 kts 335°
2026-04-25 09:55 46.57737 14.00071 34119 ft 436 kts 335°
2026-04-25 09:56 46.63376 13.96816 34119 ft 437 kts 335°
2026-04-25 09:56 46.69039 13.93539 34120 ft 437 kts 335°
2026-04-25 09:57 46.74706 13.90255 34125 ft 437 kts 335°
2026-04-25 09:57 46.80355 13.86976 34135 ft 437 kts 335°
2026-04-25 09:58 46.86016 13.83684 34145 ft 437 kts 335°
2026-04-25 09:58 46.91654 13.80395 34148 ft 436 kts 335°
2026-04-25 09:59 46.97318 13.77084 34143 ft 436 kts 334°
2026-04-25 09:59 47.02970 13.73774 34143 ft 436 kts 334°
2026-04-25 10:00 47.08621 13.70455 34148 ft 435 kts 334°
2026-04-25 10:00 47.14242 13.67155 34142 ft 436 kts 334°
2026-04-25 10:01 47.19902 13.63831 34143 ft 436 kts 334°
2026-04-25 10:01 47.25487 13.60535 34148 ft 435 kts 334°
2026-04-25 10:02 47.31160 13.57174 34144 ft 435 kts 334°
2026-04-25 10:02 47.36766 13.53844 34141 ft 436 kts 334°
2026-04-25 10:03 47.42387 13.50498 34139 ft 436 kts 334°
2026-04-25 10:03 47.48031 13.47128 34131 ft 436 kts 334°
2026-04-25 10:04 47.53646 13.43770 34136 ft 435 kts 334°
2026-04-25 10:04 47.59275 13.40394 34128 ft 435 kts 334°
2026-04-25 10:05 47.64901 13.37011 34125 ft 435 kts 334°
2026-04-25 10:05 47.70537 13.33608 34122 ft 435 kts 333°
2026-04-25 10:06 47.76117 13.30211 34114 ft 435 kts 333°
2026-04-25 10:06 47.81760 13.26784 34110 ft 436 kts 333°
2026-04-25 10:07 47.87364 13.23381 34107 ft 436 kts 333°
2026-04-25 10:07 47.92999 13.19955 34102 ft 435 kts 333°
2026-04-25 10:08 47.98597 13.16545 34104 ft 435 kts 333°
2026-04-25 10:08 48.04205 13.13119 34097 ft 434 kts 333°
2026-04-25 10:09 48.09812 13.09688 34094 ft 434 kts 333°
2026-04-25 10:09 48.15462 13.06239 34095 ft 435 kts 333°
2026-04-25 10:10 48.21089 13.02810 34091 ft 435 kts 334°
2026-04-25 10:10 48.26888 12.99948 34093 ft 439 kts 339°
2026-04-25 10:11 48.32751 12.97474 34092 ft 439 kts 340°
2026-04-25 10:11 48.38634 12.95007 34092 ft 438 kts 340°
2026-04-25 10:12 48.44514 12.92528 34092 ft 439 kts 340°
2026-04-25 10:13 48.53326 12.88796 34088 ft 438 kts 340°
2026-04-25 10:13 48.59193 12.86301 34088 ft 438 kts 340°
2026-04-25 10:14 48.65067 12.83798 34085 ft 437 kts 339°
2026-04-25 10:14 48.70925 12.81295 34086 ft 437 kts 340°
2026-04-25 10:15 48.76803 12.78777 34083 ft 437 kts 340°
2026-04-25 10:15 48.82639 12.76273 34082 ft 436 kts 339°
2026-04-25 10:16 48.88456 12.73770 34082 ft 436 kts 340°
2026-04-25 10:16 48.94298 12.71250 34082 ft 436 kts 340°
2026-04-25 10:17 49.00145 12.68722 34081 ft 435 kts 340°
2026-04-25 10:17 49.05997 12.66186 34081 ft 436 kts 340°
2026-04-25 10:18 49.11829 12.63653 34080 ft 435 kts 340°
2026-04-25 10:18 49.17667 12.61127 34079 ft 435 kts 340°
2026-04-25 10:19 49.23494 12.58587 34078 ft 435 kts 340°
2026-04-25 10:19 49.29237 12.55593 34075 ft 432 kts 333°
2026-04-25 10:20 49.34660 12.51599 34075 ft 427 kts 327°
2026-04-25 10:20 49.39663 12.46687 34079 ft 429 kts 320°
2026-04-25 10:21 49.44382 12.41057 34076 ft 434 kts 318°
2026-04-25 10:21 49.49161 12.35207 34076 ft 439 kts 318°
2026-04-25 10:22 49.53962 12.29302 34073 ft 444 kts 317°
2026-04-25 10:22 49.58808 12.23349 34076 ft 444 kts 317°
2026-04-25 10:23 49.63671 12.17421 34074 ft 444 kts 319°
2026-04-25 10:23 49.68794 12.12122 34075 ft 447 kts 325°
2026-04-25 10:24 49.74354 12.07685 34079 ft 450 kts 332°
2026-04-25 10:24 49.80226 12.04248 34083 ft 453 kts 338°
2026-04-25 10:25 49.86269 12.01431 34073 ft 453 kts 339°
2026-04-25 10:25 49.92308 11.98672 34078 ft 453 kts 339°
2026-04-25 10:26 49.98344 11.95900 34073 ft 453 kts 339°
2026-04-25 10:26 50.04407 11.93104 34080 ft 453 kts 339°
2026-04-25 10:27 50.10420 11.90321 34090 ft 452 kts 339°
2026-04-25 10:27 50.16494 11.87517 34100 ft 450 kts 339°
2026-04-25 10:28 50.22478 11.84745 34107 ft 450 kts 339°
2026-04-25 10:28 50.28495 11.81941 34109 ft 450 kts 339°
2026-04-25 10:29 50.34462 11.79151 34113 ft 449 kts 339°
2026-04-25 10:29 50.40457 11.76340 34112 ft 448 kts 339°
2026-04-25 10:30 50.46457 11.73518 34106 ft 447 kts 339°
2026-04-25 10:30 50.52408 11.70712 34093 ft 447 kts 339°
2026-04-25 10:31 50.58350 11.67901 34097 ft 447 kts 339°
2026-04-25 10:31 50.64290 11.65085 34095 ft 446 kts 339°
2026-04-25 10:32 50.70233 11.62261 34097 ft 446 kts 339°
2026-04-25 10:32 50.76177 11.59426 34100 ft 444 kts 340°
2026-04-25 10:33 50.82094 11.56599 34099 ft 443 kts 340°
2026-04-25 10:33 50.87985 11.53778 34105 ft 443 kts 340°
2026-04-25 10:34 50.93881 11.50946 34099 ft 444 kts 340°
2026-04-25 10:34 50.99760 11.48115 34098 ft 443 kts 340°
2026-04-25 10:35 51.05688 11.45251 34103 ft 443 kts 340°
2026-04-25 10:35 51.11595 11.42391 34104 ft 441 kts 340°
2026-04-25 10:36 51.17478 11.39551 34098 ft 440 kts 340°
2026-04-25 10:36 51.23390 11.36681 34103 ft 441 kts 340°
2026-04-25 10:37 51.29335 11.33774 34099 ft 440 kts 339°
2026-04-25 10:37 51.35155 11.30900 34097 ft 439 kts 339°
2026-04-25 10:38 51.41007 11.28017 34096 ft 439 kts 340°
2026-04-25 10:38 51.46826 11.25151 34092 ft 439 kts 340°
2026-04-25 10:39 51.52668 11.22267 34097 ft 438 kts 340°
2026-04-25 10:39 51.58492 11.19388 34094 ft 438 kts 340°
2026-04-25 10:40 51.64299 11.16510 34094 ft 438 kts 340°
2026-04-25 10:40 51.70125 11.13615 34095 ft 437 kts 340°
2026-04-25 10:41 51.75933 11.10724 34095 ft 436 kts 340°
2026-04-25 10:41 51.81723 11.07833 34091 ft 436 kts 340°
2026-04-25 10:42 51.87679 11.05367 34092 ft 437 kts 346°
2026-04-25 10:42 51.93719 11.03728 34092 ft 436 kts 346°
2026-04-25 10:43 51.99651 11.01778 34096 ft 435 kts 346°
2026-04-25 10:43 52.05571 10.99984 34083 ft 428 kts 346°
2026-04-25 10:44 52.11421 10.98208 34082 ft 425 kts 347°
2026-04-25 10:44 52.17307 10.96416 34074 ft 426 kts 346°
2026-04-25 10:44 52.20218 10.95524 33640 ft 426 kts 346°
2026-04-25 10:45 52.23155 10.94622 33158 ft 421 kts 346°
2026-04-25 10:45 52.26011 10.93743 32649 ft 416 kts 346°
2026-04-25 10:45 52.28841 10.92871 32112 ft 413 kts 346°
2026-04-25 10:45 52.31644 10.92005 31580 ft 409 kts 346°
2026-04-25 10:46 52.34453 10.91134 31066 ft 405 kts 346°
2026-04-25 10:46 52.37232 10.90269 30537 ft 401 kts 346°
2026-04-25 10:46 52.39961 10.89419 29994 ft 398 kts 346°
2026-04-25 10:46 52.42646 10.88586 29434 ft 395 kts 346°
2026-04-25 10:47 52.45370 10.87735 28860 ft 392 kts 346°
2026-04-25 10:47 52.48018 10.86908 28310 ft 389 kts 345°
2026-04-25 10:47 52.50682 10.86077 27742 ft 387 kts 345°
2026-04-25 10:47 52.53315 10.85251 27176 ft 385 kts 345°
2026-04-25 10:48 52.55903 10.84441 26636 ft 382 kts 345°
2026-04-25 10:48 52.58518 10.83622 26116 ft 379 kts 345°
2026-04-25 10:48 52.61109 10.82809 25586 ft 375 kts 345°
2026-04-25 10:48 52.63654 10.82009 25056 ft 373 kts 345°
2026-04-25 10:49 52.66184 10.81211 24519 ft 370 kts 345°
2026-04-25 10:49 52.68679 10.80423 23986 ft 368 kts 345°
2026-04-25 10:49 52.71212 10.79624 23453 ft 366 kts 345°
2026-04-25 10:49 52.73701 10.78835 22931 ft 363 kts 345°
2026-04-25 10:50 52.76179 10.78053 22458 ft 362 kts 345°
2026-04-25 10:50 52.78616 10.77280 22013 ft 358 kts 345°
2026-04-25 10:50 52.81059 10.76506 21559 ft 355 kts 345°
2026-04-25 10:50 52.83447 10.75748 21108 ft 352 kts 345°
2026-04-25 10:51 52.85866 10.74978 20656 ft 350 kts 345°
2026-04-25 10:51 52.88251 10.74220 20218 ft 347 kts 345°
2026-04-25 10:51 52.90622 10.73463 19810 ft 345 kts 345°
2026-04-25 10:51 52.92986 10.72710 19423 ft 342 kts 345°
2026-04-25 10:52 52.95306 10.71971 19043 ft 340 kts 344°
2026-04-25 10:52 52.97627 10.71229 18661 ft 339 kts 344°
2026-04-25 10:52 52.99932 10.70493 18299 ft 337 kts 344°
2026-04-25 10:52 53.02240 10.69753 17929 ft 336 kts 344°
2026-04-25 10:53 53.04572 10.69003 17570 ft 333 kts 344°
2026-04-25 10:53 53.06823 10.68282 17138 ft 331 kts 344°
2026-04-25 10:53 53.09119 10.67543 16663 ft 329 kts 344°
2026-04-25 10:53 53.11380 10.66817 16269 ft 326 kts 344°
2026-04-25 10:54 53.13647 10.66095 15852 ft 324 kts 344°
2026-04-25 10:54 53.15127 10.65622 15587 ft 322 kts 344°
2026-04-25 10:54 53.18050 10.64686 15042 ft 319 kts 344°
2026-04-25 10:54 53.20221 10.63986 14628 ft 317 kts 343°
2026-04-25 10:55 53.22389 10.63285 14219 ft 315 kts 343°
2026-04-25 10:55 53.24544 10.62588 13826 ft 313 kts 343°
2026-04-25 10:55 53.26677 10.61896 13456 ft 310 kts 343°
2026-04-25 10:55 53.28777 10.61215 12929 ft 307 kts 344°
2026-04-25 10:56 53.30885 10.60531 12462 ft 304 kts 344°
2026-04-25 10:56 53.32937 10.59865 12015 ft 299 kts 344°
2026-04-25 10:56 53.34956 10.59211 11556 ft 289 kts 344°
2026-04-25 10:56 53.36897 10.58582 11188 ft 278 kts 344°
2026-04-25 10:57 53.38759 10.57980 10855 ft 270 kts 343°
2026-04-25 10:57 53.40598 10.57379 10491 ft 268 kts 343°
2026-04-25 10:57 53.42423 10.56780 10134 ft 265 kts 343°
2026-04-25 10:57 53.44272 10.56174 9786 ft 264 kts 343°
2026-04-25 10:58 53.46089 10.55579 9555 ft 259 kts 343°
2026-04-25 10:58 53.47853 10.54999 9404 ft 256 kts 343°
2026-04-25 10:58 53.49646 10.54406 9380 ft 256 kts 343°
2026-04-25 10:58 53.51398 10.53830 9459 ft 255 kts 343°
2026-04-25 10:59 53.53140 10.53260 9481 ft 253 kts 343°
2026-04-25 10:59 53.54883 10.52679 9218 ft 254 kts 343°
2026-04-25 10:59 53.56598 10.52094 8839 ft 252 kts 343°
2026-04-25 10:59 53.58332 10.51485 8366 ft 248 kts 342°
2026-04-25 11:00 53.59978 10.50593 7775 ft 246 kts 332°
2026-04-25 11:00 53.61480 10.49255 7210 ft 247 kts 327°
2026-04-25 11:00 53.62980 10.47760 6651 ft 246 kts 325°
2026-04-25 11:00 53.64400 10.46113 5959 ft 246 kts 321°
2026-04-25 11:01 53.65728 10.44265 5360 ft 241 kts 318°
2026-04-25 11:01 53.67009 10.42435 4845 ft 235 kts 319°
2026-04-25 11:01 53.68093 10.40959 4586 ft 228 kts 320°
2026-04-25 11:01 53.69307 10.39325 4256 ft 223 kts 320°
2026-04-25 11:02 53.70516 10.37695 4012 ft 213 kts 319°
2026-04-25 11:02 53.71635 10.36203 3943 ft 198 kts 320°
2026-04-25 11:02 53.72695 10.34789 3847 ft 188 kts 319°
2026-04-25 11:02 53.73740 10.33391 3804 ft 189 kts 318°
2026-04-25 11:03 53.74763 10.31995 3791 ft 189 kts 318°
2026-04-25 11:03 53.75621 10.30369 3675 ft 187 kts 299°
2026-04-25 11:03 53.76192 10.28355 3443 ft 190 kts 290°
2026-04-25 11:03 53.76182 10.26144 3155 ft 199 kts 248°
2026-04-25 11:04 53.75412 10.24159 2919 ft 202 kts 239°
2026-04-25 11:04 53.74606 10.22382 2988 ft 180 kts 239°
2026-04-25 11:04 53.73862 10.20808 2964 ft 162 kts 239°
2026-04-25 11:04 53.73382 10.19832 2894 ft 159 kts 239°
2026-04-25 11:05 53.72448 10.17883 2793 ft 164 kts 239°
2026-04-25 11:05 53.71719 10.16349 2567 ft 167 kts 239°
2026-04-25 11:05 53.70973 10.14814 2356 ft 168 kts 238°
2026-04-25 11:05 53.70225 10.13315 2135 ft 161 kts 238°
2026-04-25 11:06 53.69525 10.11901 1954 ft 153 kts 238°
2026-04-25 11:06 53.68843 10.10557 1708 ft 147 kts 238°
2026-04-25 11:06 53.68186 10.09259 1478 ft 144 kts 239°
2026-04-25 11:06 53.67535 10.07937 1259 ft 142 kts 237°
2026-04-25 11:07 53.66900 10.06660 1064 ft 140 kts 238°
2026-04-25 11:07 53.66278 10.05393 902 ft 140 kts 237°
2026-04-25 11:07 53.65649 10.04114 728 ft 143 kts 236°
2026-04-25 11:07 53.65007 10.02822 538 ft 143 kts 235°
2026-04-25 11:08 53.64370 10.01530 337 ft 142 kts 237°
2026-04-25 11:08 53.63739 10.00237 135 ft 141 kts 235°
2026-04-25 11:08 53.63144 9.99027 62 ft 119 kts 230°
2026-04-25 11:08 53.62719 9.98176 62 ft 68 kts 230°
2026-04-25 11:09 53.62529 9.97799 62 ft 19 kts 214°
2026-04-25 11:09 53.62443 9.97833 62 ft 16 kts 124°
2026-04-25 11:09 53.62450 9.98053 61 ft 19 kts 70°
2026-04-25 11:09 53.62530 9.98230 62 ft 19 kts 50°
2026-04-25 11:10 53.62614 9.98401 61 ft 18 kts 50°
2026-04-25 11:10 53.62672 9.98515 62 ft 18 kts 50°
2026-04-25 11:10 53.62783 9.98741 62 ft 18 kts 51°
2026-04-25 11:10 53.62868 9.98912 62 ft 18 kts 50°
2026-04-25 11:11 53.62952 9.99083 62 ft 18 kts 50°
2026-04-25 11:11 53.63035 9.99251 62 ft 18 kts 50°
2026-04-25 11:11 53.63111 9.99432 62 ft 18 kts 55°
2026-04-25 11:11 53.63190 9.99608 61 ft 18 kts 50°
2026-04-25 11:12 53.63262 9.99737 61 ft 14 kts 43°
2026-04-25 11:12 53.63329 9.99866 61 ft 14 kts 50°
2026-04-25 11:12 53.63397 10.00002 61 ft 15 kts 50°
2026-04-25 11:12 53.63420 10.00141 62 ft 12 kts 119°
2026-04-25 11:13 53.63338 10.00198 61 ft 13 kts 176°
2026-04-25 11:13 53.63291 10.00233 61 ft 6 kts 104°
2026-04-25 11:13 53.63292 10.00320 61 ft 6 kts 87°
2026-04-25 11:13 53.63293 10.00348 61 ft 0 kts 87°